NOAA NWS Hourly Roundups by Site

Regional Weather Roundup for San Diego, CA

To Select Another Site Choose from List

Select Site:  

103
ASUS46 KSGX 280211
RWRSGX

SAN DIEGO HOURLY WEATHER ROUNDUP
NATIONAL WEATHER SERVICE SAN DIEGO CA
600 PM PST FRI NOV 27 2020

NOTE: "FAIR" INDICATES FEW OR NO CLOUDS BELOW 12,000 FEET WITH NO
SIGNIFICANT WEATHER AND/OR OBSTRUCTIONS TO VISIBILITY.

CAZ042-043-060-061-PZZ750-775-280300-

GREATER SAN DIEGO AREA

CITY           SKY/WX    TMP DP  RH WIND       PRES   REMARKS
SAN DIEGO AP   CLEAR     62  44  51 N6        30.15R
CHULA VISTA      N/A     61  41  48 NW1       30.05R
BROWN FIELD    CLEAR     54  26  34 S5        30.14R
MIRAMAR MCAS   CLEAR     57  37  47 N6        30.13R
MONTGOMERY FLD CLEAR     59  40  49 NW6       30.14R
LEMON GROVE      N/A     59  37  44 CALM      30.11S

$$

NORTH SAN DIEGO COUNTY

CITY           SKY/WX    TMP DP  RH WIND       PRES   REMARKS
CAMP PENDLETON CLEAR     53  20  27 E3        30.13R
OCEANSIDE AP   CLEAR     58  47  66 CALM      30.13R
OCEANSIDE HBR    N/A     61  52  73 W3        30.20R
VISTA            N/A     58  30  34 SE2       30.12R
CARLSBAD       CLEAR     59  39  47 CALM      30.13R
ENCINITAS        N/A     56  39  51 CALM        N/A
LA JOLLA SCRIP   N/A     60  34  37 CALM      30.13S
FALLBROOK      FAIR      55  25  30 E5        30.15R
ESCONDIDO        N/A     60  30  32 CALM      30.15R
SAN MARCOS       N/A     58  30  33 CALM      30.18R
RANCHO BERNARD   N/A    N/A N/A N/A CALM      30.14R

$$

EAST SAN DIEGO COUNTY

CITY           SKY/WX    TMP DP  RH WIND       PRES   REMARKS
RAMONA         CLEAR     56   9  15 NE9       30.15R
LA MESA          N/A     59  35  41 CALM      30.09R
JAMUL            N/A     49  23  35 CALM      30.15R
DESCANSO N       N/A     46   5  18 SW2       30.18S

$$

ORANGE COUNTY AND THE LOS ANGELES BASIN

CITY           SKY/WX    TMP DP  RH WIND       PRES   REMARKS
JOHN WAYNE AP  CLEAR     65  21  18 NW6       30.13S
LAGUNA BEACH     N/A     58  27  30 E1        30.11S
LAKE FOREST FR   N/A     61   6  11 NE3       30.02R
HUNTINGTON BCH   N/A     58  30  34 N1        30.14R
LOS ALAMITOS   FAIR      58  20  23 CALM      30.14R
FULLERTON      CLEAR     63  21  20 W3        30.14R
LONG BEACH     CLEAR     61  25  25 NW7       30.14S
L.A. AP        CLEAR     60  34  37 NW9       30.14S
L.A. DOWNTOWN  CLEAR     59  22  24 CALM      30.14S

$$

THE INLAND EMPIRE

CITY           SKY/WX    TMP DP  RH WIND       PRES   REMARKS
CORONA         CLEAR     65   7  10 E9        30.15R
UPLAND AP      FAIR      57  10  15 N6        30.15R
CHINO          CLEAR     62  16  16 CALM      30.15R
ONTARIO        CLEAR     60  11  14 W7        30.14R
RIVERSIDE AP   CLEAR     61   4  10 NE5       30.15R
MORENO VALLEY    N/A     55  21  27 CALM      30.10R
MARCH ARB      CLEAR     51  -1  11 CALM      30.16R
HORSETHIEF CYN   N/A     57   7  13 W2        30.16R
PERRIS           N/A     61   3   9 SE3       30.17R
LAKE ELSINORE    N/A     57  14  18 CALM      30.10R
HEMET AP       FAIR      54   0  11 SW7       30.15R
FRENCH VALLEY  NOT AVBL
TEMECULA         N/A     61  27  27 S3        30.12R

$$

SAN BERNARDINO AND RIVERSIDE COUNTY MOUNTAINS

CITY           SKY/WX    TMP DP  RH WIND       PRES   REMARKS
BIG BEAR AP    CLEAR     32  -2  23 SE5       30.28R WCI  27
BIG BEAR LAKE    N/A     37   3  24 CALM      30.35R
LK ARROWHEAD N   N/A     39   3  22 CALM      30.25S
WRIGHTWOOD       N/A     38   6  27 CALM      30.35S
IDYLLWILD        N/A     39  14  36 CALM      30.20R
GARNER VALLEY    N/A     43   8  23 N3        30.19R
TORO PEAK        N/A     33  -7  17 E36         N/A  WCI  18

$$

SOUTHERN DESERT INCLUDING THE COACHELLA VALLEY

CITY           SKY/WX    TMP DP  RH WIND       PRES   REMARKS
PALM SPRINGS   CLEAR     64   9  11 W6        30.22R
THOUSAND PALMS   N/A     63   7  11 N3        30.16R
PALM DESERT      N/A     60  23  24 CALM      31.66S
INDIO            N/A     64  10  12 W2        30.18R
THERMAL        CLEAR     58  11  15 NW5       30.18R
BORREGO AP     FAIR      54   0  11 N8        30.17R
OCOTILLO WELLS   N/A     60  12  15 CALM      30.11R
CANEBRAKE        N/A     58   7  13 CALM      30.16R
BLYTHE         CLEAR     56  12  17 NW9       30.18R
IMPERIAL AP    CLEAR     58  22  24 NW3       30.16S
YUMA AZ        CLEAR     61  17  18 N5        30.16R

$$

UPPER DESERT

CITY           SKY/WX    TMP DP  RH WIND       PRES   REMARKS
VICTORVILLE AP CLEAR    N/A N/A N/A NE9       30.25R
HESPERIA         N/A     44   9  24 CALM      30.34R
APPLE VALLEY     N/A     43   7  23 CALM      30.35R
PALMDALE       CLEAR     41   7  24 E7        30.24R
LANCASTER      CLEAR     43   4  19 E3        30.24R
EDWARDS AFB    CLEAR     45   4  18 SE7       30.23R
GRAY BUTTE AP  FAIR      42   2  19 S6        30.22S
DAGGETT        CLEAR     49   2  14 S9        30.25S
29 PALMS N     CLEAR     50   3  14 W10       30.31R
29 PALMS JTNP    N/A     51   7  17 CALM      30.21R
NEEDLES        CLEAR     56  11  16 NW7       30.21R

$$

REGIONAL REPORTS

CITY           SKY/WX    TMP DP  RH WIND       PRES   REMARKS
SANDBERG       CLEAR     45   5  19 NE13      30.23S
LAS VEGAS NV   CLEAR     53  14  21 CALM      30.26R
PHOENIX AZ     PTCLDY    60  28  29 CALM      30.14R
TIJUANA        CLEAR     59  27  29 S3        30.17R
ENSENADA NW      N/A     59  32  36 N8        30.09R

$$

OFFSHORE ISLANDS

CITY           SKY/WX    TMP DP  RH WIND       PRES   REMARKS
CATALINA ARPT  CLEAR     59   3  10 NW7       30.16S
SAN NICOLAS IS CLEAR     53  16  23 W6        30.16R

$$

MARINE AND OFFSHORE BUOY REPORTS

STATION/POSITION SKY/WX   TEMP    WIND        PRES    VSBY  SWELL
                          AIR SEA DIR/SP/G                  HT/PER/DIR
                          (F)     (DEG/KT/KT) (MB)    (MI)  (FT/S/D)
TANNER BANKS               62      20/  4/  6 1020.8R         7/300/13
S CLEMENTE BASIN           63                 1020.2R         5/270/13
SAN NICOLAS IS.               58                N/A           5/310/14
SO. S. ROSA ISLA           56 58              1021.8R         7/300/14
W. S. BARBARA CH                  320/  8/ 12 1021.7R         7/300/13
M. S. BARBARA CH           58 58  290/  6/  6 1021.7S         3/260/13
S. MONICA BASIN            60 60  270/  4/  6 1020.9S         2/250/12
S PEDRO CHANNEL               62                N/A           2/270/13
OCEANSIDE OFFSHR              62                N/A           2/270/12
TORREY PINES OTR              60                N/A           2/270/14
SAN DIEGO BAY                 63              1020.1R
IMPERIAL BEACH                60                N/A           2/270/14
POINT LOMA SOUTH              63                N/A           3/290/14

$$




 

View Past Reports for San Diego, CA.

Products Courtesy of NOAA-NWS
NWS Information Parsing Script by Ken True at Saratoga Weather - Script by SE Lincoln Weather.